Volver al catálogo

CZ-6A DEB

ActivoPO
NORAD 60658·DEBRIS·🇨🇳 China

Lanzado Aug 6, 2024 desde Taiyuan Satellite Launch Center

Loading…

Próximos Pases (próximas 24 horas)

TLE

ActualizadoSource: Space-Track

Época: Sep 14, 2026, 17:54 UTC

1 60658U 24140BK  26257.74601814  .00000933  00000-0  30919-3 0  9999
2 60658  88.9790 260.8875 0070003  87.4197 273.5013 14.35679658109959

Sigue CZ-6A DEB en tiempo real con AllMySat

Download on the App Store